Location: Chèvreville
(49.1099°N, 2.8495°E)
Time: 18:28:56
(UTC+00:00)

Okean O Rocket - Visible Passes

Search period start: 26 May 2024 00:00
Search period end: 05 June 2024 00:00
Orbit: 619 x 639 km, 98.1° (Epoch: 25 May)

Date Brightness Start Highest point End Pass type
(mag) Time Alt. Az. Time Alt. Az. Time Alt. Az.
26 May 4.1 20:58:20 10° SW 21:01:22 18° W 21:04:26 10° NW visible
27 May 4.4 21:20:06 10° WSW 21:21:40 12° W 21:23:14 10° WNW visible
29 May 3.0 20:20:49 10° SSW 20:24:57 38° W 20:29:07 10° NNW visible
30 May 3.7 20:41:28 10° SSW 20:45:07 25° W 20:48:49 10° NW visible
31 May 4.2 21:02:30 10° SW 21:05:21 17° W 21:08:13 10° NW visible
01 Jun 4.5 21:24:39 10° W 21:25:39 11° W 21:26:39 10° WNW visible
03 Jun 3.1 20:24:49 10° SSW 20:28:53 35° W 20:32:57 10° NNW visible
04 Jun 3.8 20:45:30 10° SSW 20:49:02 23° W 20:52:36 10° NW visible
